Wind_Speed
37 35 32 32 33 34 34 35 37 39 43 46 49 52 53 54 57 60 60 61 62 63 63 63 62 60 59 58 56 55 52 50 50 49 47 46 45 44 43 43 43 42 40 38
35 32 30 30 30 31 32 33 34 36 40 45 46 49 49 52 55 58 59 59 61 62 63 63 63 62 60 59 57 55 54 51 49 48 48 47 46 45 44 44 43 43 41 40
33 30 28 28 28 29 30 32 32 34 36 41 44 46 46 49 53 56 59 59 59 62 63 64 64 62 61 59 57 55 53 52 50 48 49 48 46 46 45 44 43 43 42 41
31 29 28 27 26 29 29 29 31 33 35 38 41 44 43 46 50 54 57 59 59 60 62 63 64 64 62 59 57 56 54 52 51 50 49 47 46 45 43 43 43 43 43 42
29 28 27 26 25 26 27 28 30 31 34 37 38 42 41 43 47 51 54 57 59 60 61 63 63 64 62 60 58 56 55 53 52 51 49 47 46 45 45 44 44 44 43 43
28 26 26 25 24 25 26 26 27 29 31 34 34 39 41 40 42 47 50 53 57 59 61 63 63 64 63 61 60 58 56 54 53 51 49 47 46 45 45 44 44 44 43 42
26 25 24 23 22 22 23 23 24 25 28 29 30 36 38 37 39 44 48 51 55 59 60 62 63 63 64 62 60 58 57 55 54 52 49 46 46 45 45 44 44 43 42 41
26 22 22 21 21 20 20 20 22 23 26 27 28 32 36 35 36 41 45 48 53 58 60 61 63 62 62 62 60 58 57 55 54 53 50 47 46 45 45 45 44 43 42 41
27 21 19 19 20 19 19 20 21 23 23 25 26 31 33 34 35 39 43 46 50 56 59 61 63 63 62 61 60 59 58 56 54 53 51 49 47 45 45 45 45 43 42 41
26 22 19 19 19 19 19 19 20 21 20 21 23 27 30 33 34 38 41 44 48 52 56 59 62 62 63 62 61 59 58 57 55 54 53 51 48 47 45 45 45 44 42 42
26 23 20 20 19 19 20 19 19 21 21 20 21 24 27 29 32 36 40 43 45 48 52 56 59 61 61 62 61 60 59 58 57 55 54 53 50 48 47 46 45 45 44 42
26 24 21 20 20 20 21 21 20 22 23 23 23 22 25 26 29 33 38 41 44 46 49 53 55 58 61 61 61 60 57 57 57 55 54 53 52 50 49 47 46 46 45 44
26 24 22 20 19 20 21 23 23 24 26 26 27 24 24 25 29 32 35 39 42 45 47 51 53 55 57 59 61 60 58 57 57 56 55 54 53 52 50 48 47 46 45 45
26 24 23 22 21 21 21 23 23 25 27 27 27 26 25 25 29 32 35 38 41 44 46 48 51 53 55 57 59 60 59 58 58 57 55 54 53 52 51 50 48 47 46 46
27 26 24 23 22 22 22 23 24 26 27 28 27 28 28 27 30 32 35 39 41 43 45 47 49 51 53 55 57 58 59 58 57 57 56 54 53 53 52 51 50 49 48 46
27 26 24 22 22 23 23 22 24 26 27 29 29 29 30 31 31 33 35 38 41 43 44 45 48 50 51 53 55 57 58 58 57 56 56 55 53 53 53 52 51 51 50 48
27 26 25 23 22 23 22 21 23 25 27 29 30 30 32 33 33 33 36 38 39 42 44 46 48 49 51 51 53 55 56 56 57 57 56 56 55 54 52 52 52 51 50 49
26 26 25 24 22 22 20 21 23 24 26 28 29 31 32 33 34 36 36 38 40 41 44 46 48 50 51 51 52 54 56 56 56 57 57 56 55 54 53 53 52 51 50 49
26 26 26 25 24 23 21 21 22 24 24 26 29 31 32 33 35 37 38 39 40 41 43 44 46 49 50 51 51 53 55 55 55 56 56 56 55 55 53 52 52 51 49 48
26 26 26 26 25 24 21 22 23 23 22 24 27 29 31 33 35 36 39 40 40 42 43 44 45 47 50 50 50 51 53 54 55 55 55 56 55 55 54 52 51 50 49 48
26 26 25 25 25 23 21 22 23 23 22 24 26 28 29 32 34 36 38 40 41 42 42 43 44 46 49 50 50 51 51 52 54 54 54 54 55 54 54 53 51 50 49 48
27 27 26 25 25 23 22 22 23 23 24 25 26 27 29 30 34 37 38 39 40 42 43 43 43 45 48 49 50 51 51 52 53 54 54 54 53 53 53 52 51 50 49 48
27 26 27 26 25 24 24 24 24 24 25 25 26 27 28 30 32 36 37 38 39 41 42 43 44 44 47 49 50 50 51 52 53 53 54 54 53 52 52 51 50 50 49 48
26 27 27 26 24 24 24 24 24 25 25 25 26 27 29 30 31 34 37 38 40 42 43 43 43 44 46 48 49 50 51 50 51 52 53 53 53 53 52 51 51 50 49 47
26 27 26 25 23 24 24 24 24 25 24 25 25 27 28 29 32 34 36 38 39 41 42 43 44 44 45 46 48 49 50 50 50 51 52 52 52 52 52 51 51 49 48 47
24 26 26 24 24 24 24 25 25 25 25 25 25 26 28 28 30 33 35 36 38 40 41 42 43 44 44 45 47 48 48 49 49 49 49 50 50 50 50 50 50 49 47 46
Wind_Direction
305 300 291 280 272 269 265 261 257 249 242 241 238 234 229 226 224 221 219 218 218 217 216 216 216 216 218 218 218 219 219 221 222 224 224 224 225 226 226 228 229 230 232 234
305 300 292 281 271 267 264 263 258 251 245 242 239 235 230 226 224 221 218 217 217 216 216 216 215 216 216 218 218 218 220 220 221 223 224 224 225 225 226 227 229 231 232 234
305 301 292 283 273 267 264 264 260 255 247 243 239 234 229 226 224 221 218 217 215 215 215 215 216 216 216 217 218 218 219 220 221 222 224 224 225 225 226 227 229 231 232 234
303 299 292 286 281 272 265 262 259 255 250 245 241 238 228 227 223 220 218 217 215 214 215 215 216 216 216 217 218 218 219 220 220 221 223 225 225 226 226 227 229 231 233 234
305 299 292 286 282 276 269 265 260 255 251 247 242 242 229 227 224 220 218 218 216 214 214 215 215 216 216 217 218 218 219 219 220 221 222 224 225 225 225 227 229 231 233 236
306 299 293 288 281 276 271 267 261 256 252 249 243 245 234 226 223 220 218 217 216 215 215 215 215 215 215 215 217 218 218 219 219 221 222 224 224 225 226 227 230 231 233 235
309 300 291 286 281 276 272 267 263 259 255 250 243 243 234 224 222 220 218 216 215 215 215 215 215 215 215 215 215 217 218 219 219 220 222 223 224 224 226 227 229 231 233 234
313 304 293 285 280 278 271 264 259 261 261 254 246 242 232 224 220 219 217 215 215 214 214 214 215 215 216 216 215 216 217 218 219 220 221 222 223 224 225 227 229 230 232 233
314 305 295 285 278 276 268 262 257 257 259 256 247 238 233 227 222 219 218 217 216 215 215 215 215 215 216 216 216 217 217 217 218 220 220 221 223 223 225 226 228 229 231 233
313 304 296 285 277 272 269 264 258 254 254 254 249 240 234 227 224 221 219 219 217 215 216 216 216 216 217 217 217 218 218 217 218 219 220 220 222 224 225 227 228 229 231 232
311 305 296 286 277 270 266 258 254 250 248 250 247 239 234 230 226 223 221 220 219 216 216 216 216 217 217 218 217 217 218 218 218 219 219 220 221 223 225 226 227 229 231 233
310 306 298 289 279 272 266 259 254 250 246 244 244 235 232 230 227 224 221 219 219 217 216 216 216 216 217 218 217 216 217 218 219 220 220 220 222 223 225 226 227 228 230 232
309 306 301 290 281 271 266 260 257 253 248 245 241 233 230 231 228 226 222 219 218 217 216 217 216 216 216 217 218 218 217 218 219 220 221 221 221 223 225 226 227 229 231 233
305 303 299 291 283 274 267 261 257 254 251 247 241 234 228 229 227 225 223 220 217 216 216 216 216 216 216 217 218 218 218 219 220 221 222 222 222 223 225 226 227 229 230 232
302 301 297 289 282 275 270 264 257 254 252 248 241 237 228 226 224 223 223 221 218 216 215 215 216 216 217 217 218 218 218 219 220 222 223 223 223 224 225 227 228 229 230 232
302 300 296 289 281 274 270 264 259 256 253 250 244 239 233 227 224 223 222 221 220 218 216 214 215 215 216 217 217 218 218 219 220 222 223 224 225 225 226 227 229 230 231 232
302 299 294 289 283 276 270 265 263 259 255 250 248 243 236 230 228 225 222 221 220 219 218 217 216 215 216 217 217 218 218 218 220 222 223 224 226 226 227 228 230 231 232 234
302 298 292 288 283 280 274 268 263 261 258 253 249 244 238 233 230 228 225 223 222 221 219 218 217 217 216 217 217 218 218 218 219 221 223 225 226 227 228 230 232 233 234 235
301 296 292 287 282 280 276 271 265 263 259 253 250 245 240 237 233 230 228 226 224 222 219 217 217 217 217 217 217 218 218 219 220 221 222 225 226 227 229 231 232 234 235 235
301 296 292 287 283 281 278 272 267 264 260 253 251 246 243 237 233 231 230 228 226 223 219 218 217 217 218 218 218 219 219 220 221 221 223 224 226 228 229 231 233 234 235 236
298 296 292 288 283 281 278 272 268 265 261 254 252 249 243 238 235 232 231 229 227 225 221 220 219 219 219 219 219 219 220 220 221 221 223 225 226 227 229 231 233 234 236 237
295 293 290 287 283 283 278 273 269 266 261 257 253 249 244 240 235 233 231 230 228 225 223 221 221 221 221 221 221 220 220 220 221 222 223 224 226 227 229 230 232 234 235 237
293 291 288 286 283 280 278 274 269 266 263 259 254 249 246 241 235 233 231 229 227 225 224 223 221 220 221 222 222 222 220 222 222 223 224 224 226 227 229 230 231 233 235 237
293 289 288 289 284 279 276 272 269 267 264 259 255 251 246 242 238 234 231 228 225 224 223 223 222 221 221 221 222 223 223 222 222 223 224 225 225 226 228 229 231 233 234 236
292 288 287 289 286 279 275 272 269 266 264 261 257 253 248 245 241 237 233 229 226 224 223 224 223 222 221 221 222 222 223 222 222 223 223 224 224 226 227 228 229 231 233 235
287 287 287 287 283 279 275 271 268 266 263 262 259 253 251 248 243 238 234 231 228 226 224 224 224 223 222 221 221 221 222 222 222 223 223 223 224 224 226 227 228 230 232 234
Height
5537 5535 5531 5529 5527 5527 5527 5527 5529 5534 5537 5538 5543 5550 5559 5567 5575 5585 5595 5606 5618 5631 5643 5653 5663 5673 5682 5691 5700 5708 5716 5723 5730 5737 5744 5750 5756 5762 5768 5773 5777 5782 5787 5791
5530 5528 5524 5521 5520 5519 5519 5519 5522 5525 5528 5529 5533 5540 5548 5556 5564 5575 5585 5596 5607 5619 5631 5642 5652 5662 5672 5682 5691 5699 5707 5715 5722 5730 5736 5742 5748 5754 5759 5764 5770 5775 5780 5784
5523 5521 5516 5514 5513 5512 5512 5513 5515 5517 5519 5522 5525 5530 5540 5548 5555 5564 5574 5585 5596 5608 5620 5631 5642 5652 5662 5672 5682 5691 5699 5707 5714 5721 5727 5733 5739 5745 5751 5757 5763 5768 5772 5777
5518 5514 5511 5509 5507 5506 5507 5508 5507 5509 5511 5514 5519 5521 5532 5540 5547 5555 5566 5576 5586 5598 5609 5621 5632 5643 5653 5663 5673 5681 5690 5697 5705 5712 5718 5725 5732 5739 5745 5750 5755 5760 5764 5769
5512 5508 5505 5504 5503 5500 5501 5501 5501 5502 5504 5507 5512 5514 5524 5531 5539 5548 5559 5568 5579 5589 5600 5611 5622 5634 5644 5653 5662 5671 5679 5688 5696 5703 5711 5717 5724 5731 5736 5741 5747 5752 5757 5761
5507 5503 5500 5498 5497 5496 5495 5496 5496 5497 5498 5501 5508 5509 5516 5526 5534 5543 5552 5560 5570 5580 5590 5601 5612 5622 5632 5642 5652 5661 5669 5678 5687 5694 5702 5709 5716 5722 5728 5733 5739 5744 5749 5753
5504 5500 5496 5494 5493 5493 5491 5492 5492 5492 5493 5497 5502 5503 5512 5521 5528 5535 5543 5551 5560 5570 5580 5590 5601 5611 5622 5632 5642 5651 5660 5669 5678 5685 5693 5701 5708 5714 5720 5725 5730 5736 5741 5746
5498 5496 5492 5490 5488 5488 5488 5488 5490 5490 5490 5493 5496 5499 5508 5515 5521 5526 5533 5541 5549 5559 5569 5579 5590 5601 5611 5622 5632 5642 5651 5660 5669 5677 5685 5692 5699 5705 5711 5717 5723 5728 5733 5737
5493 5492 5489 5486 5485 5484 5484 5485 5486 5486 5486 5488 5491 5496 5502 5508 5514 5520 5526 5533 5541 5550 5559 5569 5580 5590 5601 5611 5622 5632 5641 5651 5660 5668 5676 5683 5690 5697 5703 5709 5715 5720 5725 5729
5489 5487 5486 5484 5483 5482 5481 5481 5482 5483 5483 5484 5488 5492 5497 5503 5508 5514 5520 5526 5534 5542 5551 5560 5570 5580 5591 5602 5612 5622 5631 5641 5650 5659 5666 5674 5682 5689 5695 5700 5706 5712 5716 5720
5485 5483 5482 5480 5479 5478 5478 5478 5478 5479 5480 5481 5484 5490 5492 5497 5502 5507 5513 5520 5527 5534 5542 5551 5561 5571 5582 5592 5602 5612 5622 5631 5640 5649 5657 5665 5672 5679 5686 5691 5698 5703 5708 5712
5482 5479 5477 5476 5475 5474 5473 5473 5474 5475 5476 5477 5479 5486 5488 5492 5496 5500 5506 5512 5519 5526 5535 5543 5553 5563 5572 5582 5592 5602 5612 5622 5631 5640 5648 5656 5663 5670 5676 5683 5689 5694 5699 5704
5477 5475 5473 5472 5473 5471 5469 5469 5469 5470 5470 5471 5474 5482 5483 5487 5490 5494 5500 5505 5512 5519 5527 5536 5544 5553 5563 5573 5583 5593 5603 5613 5622 5630 5639 5646 5654 5661 5668 5674 5680 5685 5690 5695
5472 5470 5469 5468 5465 5464 5464 5464 5464 5464 5464 5466 5469 5474 5478 5481 5484 5488 5493 5498 5504 5512 5520 5528 5536 5545 5554 5564 5574 5584 5594 5604 5612 5621 5629 5637 5645 5652 5659 5665 5671 5676 5682 5687
5468 5466 5464 5462 5460 5459 5459 5459 5459 5459 5459 5461 5464 5467 5471 5474 5478 5482 5486 5492 5498 5505 5513 5520 5528 5537 5546 5556 5565 5575 5585 5594 5603 5611 5620 5628 5636 5643 5649 5655 5661 5667 5672 5677
5463 5460 5458 5457 5455 5454 5453 5453 5453 5453 5454 5455 5457 5461 5464 5467 5471 5475 5480 5485 5491 5498 5505 5513 5520 5529 5538 5547 5556 5566 5575 5585 5594 5602 5611 5619 5626 5632 5639 5645 5651 5657 5663 5668
5458 5455 5453 5452 5450 5448 5448 5449 5447 5447 5448 5449 5451 5455 5457 5461 5465 5469 5473 5478 5484 5491 5498 5505 5513 5521 5529 5538 5547 5556 5565 5575 5584 5592 5601 5608 5616 5623 5630 5636 5642 5648 5654 5659
5453 5449 5446 5445 5445 5443 5446 5443 5442 5441 5442 5443 5444 5447 5450 5454 5458 5462 5467 5472 5478 5484 5490 5498 5505 5513 5521 5530 5538 5547 5556 5564 5573 5582 5590 5598 5606 5614 5620 5627 5633 5639 5644 5650
5447 5444 5441 5439 5437 5437 5439 5437 5436 5436 5437 5437 5438 5441 5444 5447 5451 5456 5460 5465 5471 5477 5483 5490 5497 5505 5513 5521 5529 5538 5546 5555 5563 5572 5580 5589 5596 5604 5610 5617 5624 5630 5635 5640
5441 5438 5436 5433 5431 5431 5434 5431 5429 5431 5431 5432 5432 5434 5437 5440 5444 5450 5454 5458 5464 5470 5476 5483 5490 5497 5505 5512 5521 5529 5537 5546 5554 5562 5570 5578 5586 5594 5601 5608 5614 5620 5626 5631
5435 5432 5430 5427 5424 5425 5427 5425 5424 5426 5426 5426 5426 5427 5430 5433 5437 5442 5446 5451 5456 5463 5469 5475 5482 5489 5496 5504 5512 5520 5528 5536 5544 5552 5560 5568 5576 5583 5591 5598 5604 5610 5616 5621
5428 5426 5423 5421 5419 5422 5420 5418 5418 5418 5418 5418 5419 5421 5423 5426 5429 5433 5438 5443 5449 5455 5461 5467 5474 5481 5488 5495 5503 5512 5519 5527 5535 5542 5550 5558 5566 5573 5580 5588 5594 5600 5606 5611
5421 5420 5417 5415 5416 5414 5412 5411 5411 5411 5411 5411 5412 5414 5416 5419 5422 5426 5431 5436 5441 5447 5453 5459 5466 5472 5479 5486 5494 5502 5510 5517 5525 5532 5540 5548 5555 5563 5570 5577 5584 5590 5596 5602
5415 5412 5409 5407 5408 5406 5405 5404 5404 5403 5404 5404 5405 5406 5408 5411 5414 5418 5422 5427 5433 5438 5444 5450 5457 5464 5470 5477 5485 5492 5500 5507 5515 5522 5530 5537 5545 5553 5560 5567 5574 5581 5587 5593
5408 5404 5402 5400 5400 5399 5398 5397 5397 5397 5397 5397 5398 5399 5401 5403 5406 5410 5414 5419 5424 5429 5435 5441 5448 5455 5461 5468 5475 5483 5490 5498 5505 5513 5520 5527 5535 5543 5550 5557 5564 5571 5578 5583
5400 5396 5394 5394 5393 5391 5391 5390 5389 5389 5389 5390 5390 5392 5393 5395 5398 5401 5405 5410 5415 5421 5426 5432 5439 5446 5452 5459 5466 5473 5480 5488 5495 5503 5511 5518 5525 5533 5540 5547 5554 5561 5568 5574